User: anonymous   Login
Location: Geremba
(10.4250°N, 67.2394°W)
Time: 03:44:00
(UTC+00:00)
Language:

Cosmos 1484 Rocket - Orbit

View from above orbital plane
View from above orbital plane
View from above satellite
View from above satellite

Ground track
Ground track

The orbit data is extracted from the following two-line orbital elements,

1 14208U 83075B   24194.89618572  .00007669  00000-0  33508-3 0  9994
2 14208  97.5702 174.3523 0030139 205.2962 154.6800 15.21982187237936
Epoch (UTC): 12 July 2024 21:30:30
Eccentricity: 0.0030139
inclination: 97.5702°
perigee height: 479 km
apogee height: 520 km
right ascension of ascending node: 174.3523°
argument of perigee: 205.2962°
revolutions per day: 15.21982187
mean anomaly at epoch: 154.6800°
orbit number at epoch: 23793

The dashed part of the orbit path shows where the satellite is in the earth's shadow,  

DLR